sat.trackr.live / text

‹ back to catalog

STARLINK-31303

NORAD 59239 · 2024-049J

PAYLOAD ACTIVE UNKNOWN

§ Identity

Operator
Country
US
Launch date
2024-03-16
Launch site
AFETR
Launch vehicle
Mass (kg)
RCS (m²)

Purposes: comms

External: N2YO · Heavens-Above · Gunter

§ Orbital elements

Epoch: 2026-05-24T22:46:40.195776Z

Period
94.27 min
Inclination
43.0021°
Eccentricity
0.0000981
Mean motion
15.27587163 rev/d
Perigee alt
482.4 km
Apogee alt
483.7 km
Semi-major
6,861.2 km
B*
4.7723e-5
RAAN
62.0142°
Arg perigee
273.4397°
Mean anomaly
86.6342°
Rev number
12,419

§ Raw data

STARLINK-313031 59239U 24049J   26144.94907634  .00001052  00000+0  47723-4 0  99902 59239  43.0021  62.0142 0000981 273.4397  86.6342 15.27587163124199

JSON: /api/v1/satellites/59239 · /tle

For live sub-satellite position, see the globe view (requires WebGL).

§ Visibility from observer

Set your observer location to see the next 7 days of passes ≥ 10°. The values pass through the URL so the page stays shareable.

No JS? Fill the form by hand. The geolocation button needs JavaScript.